GW4175 Weather Reports


time (UTC)temp
C
wind
direction
speed
KPH
gust
KPH
rain 1hr
cm
rain 24hr
cm
rain mn
cm
humidity
%
barometer
mb
20260505140515 22 0.0 0.0 0.00 2.08 1.91 95 1016.3
20260505125014 23 0.0 0.0 0.00 0.18 0.00 82 1016.0
20260505124510 24 0.0 0.0 0.00 0.18 0.00 80 1016.0
20260505124014 24 0.0 0.0 0.00 0.18 0.00 80 1015.6
20260505123510 24 0.0 0.0 0.00 0.18 0.00 80 1016.0
20260505123015 24 0.0 0.0 0.00 0.18 0.00 80 1015.6
20260505122511 24 0.0 0.0 0.00 0.18 0.00 79 1015.6
20260505122009 24 0.0 0.0 0.00 0.18 0.00 79 1015.6
20260505121512 24 0.0 0.0 0.00 0.18 0.00 79 1015.6
20260505121007 24 0.0 0.0 0.00 0.18 0.00 79 1015.3
20260505120512 24 0.0 0.0 0.00 0.18 0.00 80 1015.0
20260505120009 24 0.0 0.0 0.00 0.18 0.00 80 1015.3
20260505115512 23 0.0 0.0 0.00 0.18 0.00 81 1015.3
20260505115009 23 0.0 0.0 0.00 0.18 0.00 81 1015.0
20260505114516 23 0.0 0.0 0.00 0.18 0.00 81 1015.0
20260505114009 23 0.0 0.0 0.00 0.18 0.00 81 1015.0
20260505113514 23 0.0 0.0 0.00 0.18 0.00 81 1015.0
20260505113010 23 0.0 0.0 0.00 0.18 0.00 81 1015.0
20260505112515 23 0.0 0.0 0.00 0.18 0.00 82 1015.0
20260505112010 23 0.0 0.0 0.00 0.18 0.00 82 1015.0
20260505111515 23 0.0 0.0 0.00 0.18 0.00 83 1015.0
20260505111013 23 0.0 0.0 0.00 0.18 0.00 83 1015.0
20260505110516 23 0.0 0.0 0.00 0.18 0.00 83 1015.0
20260505102014 22 0.0 0.0 0.00 0.76 0.00 84 1014.6
20260505101509 22 0.0 0.0 0.00 0.76 0.00 84 1014.3
20260505101015 22 0.0 0.0 0.00 0.76 0.00 83 1014.3
20260505100509 22 0.0 0.0 0.00 0.76 0.00 83 1014.3
20260505100018 22 0.0 0.0 0.00 0.76 0.00 83 1014.3
20260505095511 22 0.0 0.0 0.00 0.76 0.00 83 1013.9
20260505095015 22 0.0 0.0 0.00 0.76 0.00 83 1013.9
20260505094515 22 0.0 0.0 0.00 0.76 0.00 83 1013.9
20260505094009 22 0.0 0.0 0.00 0.76 0.00 83 1013.9
20260505093515 22 0.0 0.0 0.00 0.76 0.00 83 1013.9
20260505093010 22 0.0 0.0 0.00 0.76 0.00 83 1013.9
20260505092515 22 0.0 0.0 0.00 0.76 0.00 83 1013.9
20260505092013 22 0.0 0.0 0.00 0.76 0.00 83 1013.9
20260505091513 22 0.0 0.0 0.00 0.76 0.00 83 1013.9
20260505091009 22 0.0 0.0 0.00 0.76 0.00 83 1013.9
20260505090514 22 0.0 0.0 0.00 0.76 0.00 83 1013.9
20260505090015 22 0.0 0.0 0.00 0.76 0.00 83 1013.9
20260505085515 22 0.0 0.0 0.00 0.79 0.00 83 1013.9
20260505085010 22 0.0 0.0 0.00 0.81 0.00 83 1013.9
20260505084524 22 0.0 0.0 0.00 0.81 0.00 82 1013.9
20260505084017 22 0.0 0.0 0.00 0.81 0.00 82 1013.9
20260505083507 22 0.0 0.0 0.00 0.81 0.00 82 1013.9
20260505083012 22 0.0 0.0 0.00 0.81 0.00 82 1013.6
20260505082508 22 0.0 0.0 0.00 0.81 0.00 82 1013.6
20260505082013 22 0.0 0.0 0.00 0.81 0.00 82 1013.6
20260505081507 22 0.0 0.0 0.00 0.81 0.00 82 1013.6
20260505081015 22 0.0 0.0 0.00 0.81 0.00 81 1013.6
20260505080509 22 0.0 0.0 0.00 0.81 0.00 81 1013.6
20260505080014 22 0.0 0.0 0.00 0.81 0.00 81 1013.6
20260505075509 22 0.0 0.0 0.00 0.81 0.00 81 1013.6
20260505075014 22 0.0 0.0 0.00 0.84 0.00 81 1013.9
20260505074510 22 0.0 0.0 0.00 0.84 0.00 81 1013.9
20260505074017 22 0.0 0.0 0.00 0.84 0.00 81 1013.9
20260505073516 22 0.0 0.0 0.00 0.84 0.00 80 1013.9
20260505073016 22 0.0 0.0 0.00 0.84 0.00 81 1013.9
20260505072511 22 0.0 0.0 0.00 0.84 0.00 81 1013.9
20260505072006 22 0.0 0.0 0.00 0.84 0.00 80 1014.3
20260505071512 22 0.0 0.0 0.00 0.84 0.00 80 1014.3
20260505071007 22 0.0 0.0 0.00 0.84 0.00 80 1014.3
20260505070512 22 0.0 0.0 0.00 0.84 0.00 80 1014.3
20260505070011 22 0.0 0.0 0.00 0.84 0.00 81 1014.3
20260505065513 22 0.0 0.0 0.00 0.84 0.00 81 1014.3
20260505065014 22 0.0 0.0 0.00 0.84 0.00 81 1014.3
20260505064514 22 0.0 0.0 0.00 0.84 0.00 81 1014.3
20260505064009 22 0.0 0.0 0.00 0.84 0.00 81 1014.3
20260505063515 22 0.0 0.0 0.00 0.84 0.00 81 1014.3
20260505063010 22 0.0 0.0 0.00 0.84 0.00 81 1014.3
20260505062517 22 0.0 0.0 0.00 0.84 0.00 81 1014.3
20260505062011 22 0.0 0.0 0.00 0.84 0.00 80 1014.6
20260505061517 22 0.0 0.0 0.00 0.84 0.00 80 1014.6
20260505061014 22 0.0 0.0 0.00 0.84 0.00 80 1015.0
20260505060512 22 0.0 0.0 0.00 0.84 0.00 80 1015.0
20260505060012 22 0.0 0.0 0.00 0.84 0.00 80 1015.0
20260505055510 22 0.0 0.0 0.00 0.84 0.00 80 1015.0
20260505055017 22 0.0 0.0 0.00 0.84 0.00 80 1015.0
20260505054508 22 0.0 0.0 0.00 0.84 0.00 80 1015.0
20260505054020 22 0.0 0.0 0.00 0.84 0.00 79 1015.0
20260505053509 22 0.0 0.0 0.00 0.84 0.00 79 1015.0
20260505053014 22 0.0 0.0 0.00 0.84 0.00 79 1015.0
20260505052510 22 0.0 0.0 0.00 0.84 0.00 79 1015.0
20260505052021 22 0.0 0.0 0.00 0.84 0.00 78 1015.3
20260505051511 22 0.0 0.0 0.00 0.89 0.00 79 1015.3
20260505051016 22 0.0 0.0 0.00 0.97 0.00 79 1015.3
20260505050511 22 0.0 0.0 0.00 1.02 0.00 79 1015.3
20260505041514 22 0.0 0.0 0.00 1.02 0.00 78 1015.6
20260505041009 22 0.0 0.0 0.00 1.02 0.00 78 1015.6
20260505040515 22 0.0 0.0 0.00 1.02 0.00 78 1015.6
20260505040013 22 0.0 0.0 0.00 1.04 0.00 78 1015.6
20260505035516 22 0.0 0.0 0.00 1.04 1.04 78 1015.6
20260505035010 22 0.0 0.0 0.00 1.04 1.04 78 1015.6
20260505034506 22 0.0 0.0 0.00 1.04 1.04 79 1015.6
20260505034011 22 0.0 0.0 0.00 1.04 1.04 79 1015.6
20260505033506 22 0.0 0.0 0.00 1.04 1.04 79 1015.6
20260505033012 22 0.0 0.0 0.00 1.04 1.04 79 1015.6
20260505032507 22 0.0 0.0 0.00 1.07 1.04 79 1015.6
20260505032013 22 0.0 0.0 0.00 1.07 1.04 79 1015.6
20260505031508 22 0.0 0.0 0.00 1.07 1.04 79 1015.6
20260505031013 22 0.0 0.0 0.00 1.07 1.04 79 1015.6
20260505030508 22 0.0 0.0 0.00 1.07 1.04 79 1015.6
20260505030014 22 0.0 0.0 0.00 1.07 1.04 79 1015.6
20260505025509 22 0.0 0.0 0.00 1.07 1.04 78 1015.6
20260505025014 23 0.0 0.0 0.00 1.07 1.04 79 1015.6
20260505024510 23 0.0 0.0 0.00 1.07 1.04 78 1015.6
20260505024016 23 0.0 0.0 0.00 1.07 1.04 78 1016.0
20260505023511 23 0.0 0.0 0.00 1.07 1.04 78 1016.0
20260505023015 23 0.0 0.0 0.00 1.07 1.04 78 1016.0
20260505022511 23 0.0 0.0 0.00 1.07 1.04 78 1016.0
20260505022017 23 0.0 0.0 0.00 1.07 1.04 78 1015.6
20260505021512 23 0.0 0.0 0.00 1.07 1.04 78 1015.6
20260505021007 23 0.0 0.0 0.00 1.07 1.04 77 1015.6
20260505020515 23 0.0 0.0 0.00 1.07 1.04 77 1015.6
20260505015513 23 0.0 0.0 0.00 1.07 1.04 77 1015.6
20260505015009 23 0.0 0.0 0.00 1.07 1.04 76 1016.0
20260505014514 23 0.0 0.0 0.00 1.07 1.04 76 1016.0
20260505014010 23 0.0 0.0 0.00 1.07 1.04 76 1016.0
20260505013515 23 0.0 0.0 0.00 1.07 1.04 76 1016.0
20260505013009 23 0.0 0.0 0.00 1.07 1.04 76 1015.6
20260505012515 23 0.0 0.0 0.00 1.07 1.04 76 1015.6
20260505012011 23 0.0 0.0 0.00 1.07 1.04 76 1015.6
20260505011517 23 0.0 0.0 0.00 1.07 1.04 75 1015.3
20260505011011 23 0.0 0.0 0.00 1.07 1.04 75 1015.3
20260505010506 23 0.0 0.0 0.00 1.07 1.04 74 1015.3
20260505010013 23 0.0 0.0 0.00 1.07 1.04 75 1015.3
20260505005507 23 0.0 0.0 0.00 1.07 1.04 75 1015.3
20260505005012 23 0.0 0.0 0.00 1.07 1.04 75 1015.3
20260505004507 23 0.0 0.0 0.00 1.07 1.04 75 1015.3
20260505004014 23 0.0 0.0 0.00 1.07 1.04 75 1015.0
20260505003508 23 0.0 0.0 0.00 1.07 1.04 75 1015.3
20260505003014 23 0.0 0.0 0.00 1.07 1.04 74 1015.0
20260505002510 23 0.0 0.0 0.00 1.07 1.04 75 1015.0
20260505002014 23 0.0 0.0 0.00 1.07 1.04 75 1015.0
20260505001509 23 0.0 0.0 0.00 1.07 1.04 74 1015.0
20260505001015 23 0.0 0.0 0.00 1.07 1.04 74 1015.0
20260505000510 23 0.0 0.0 0.00 1.07 1.04 73 1015.0
20260505000016 23 0.0 0.0 0.00 1.07 1.04 73 1015.0
20260504235510 23 0.0 0.0 0.00 1.07 1.04 73 1014.6
20260504235008 23 0.0 0.0 0.00 1.07 1.04 73 1015.0
20260504234512 23 0.0 0.0 0.00 1.07 1.04 73 1014.6
20260504234017 23 0.0 0.0 0.00 1.07 1.04 73 1014.6
20260504233512 23 0.0 0.0 0.00 1.07 1.04 73 1014.6
20260504233007 23 0.0 0.0 0.00 1.09 1.04 72 1014.6
20260504232513 23 0.0 0.0 0.00 1.09 1.04 72 1014.6
20260504232007 23 0.0 0.0 0.00 1.09 1.04 73 1014.6
20260504231513 23 0.0 0.0 0.00 1.09 1.04 73 1014.6
20260504231008 23 0.0 0.0 0.00 1.09 1.04 73 1014.6
20260504230515 23 0.0 0.0 0.00 1.09 1.04 72 1014.6
20260504230009 23 0.0 0.0 0.00 1.09 1.04 72 1014.3
20260504225514 23 0.0 0.0 0.00 1.09 1.04 72 1014.3
20260504225010 23 0.0 0.0 0.00 1.09 1.04 72 1014.6
20260504224516 23 0.0 0.0 0.00 1.09 1.04 73 1014.3
20260504224010 23 0.0 0.0 0.00 1.09 1.04 73 1014.6
20260504223516 24 0.0 0.0 0.00 1.09 1.04 73 1014.6
20260504223011 24 0.0 0.0 0.00 1.09 1.04 73 1014.6
20260504222507 24 0.0 0.0 0.00 1.09 1.04 71 1014.3
20260504222011 24 0.0 0.0 0.00 1.09 1.04 72 1014.6
20260504221507 24 0.0 0.0 0.00 1.09 1.04 73 1014.3
20260504221013 24 0.0 0.0 0.00 1.09 1.04 73 1014.3
20260504220508 24 0.0 0.0 0.00 1.09 1.04 72 1014.6
20260504220013 24 0.0 0.0 0.00 1.09 1.04 72 1014.6
20260504215509 24 0.0 0.0 0.00 1.09 1.04 70 1014.6
20260504215014 24 0.0 0.0 0.00 1.09 1.04 71 1014.6
20260504214509 24 0.0 0.0 0.00 1.09 1.04 71 1014.6
20260504214014 25 0.0 0.0 0.00 1.09 1.04 71 1014.6
20260504213509 25 0.0 0.0 0.00 1.09 1.04 70 1014.6
20260504213014 24 0.0 0.0 0.00 1.09 1.04 72 1014.6
20260504212510 24 0.0 0.0 0.00 1.09 1.04 73 1014.3
20260504212016 24 0.0 0.0 0.00 1.09 1.04 73 1014.6
20260504211512 24 0.0 0.0 0.00 1.09 1.04 72 1014.6
20260504211007 24 0.0 0.0 0.00 1.09 1.04 71 1014.6
20260504210511 24 0.0 0.0 0.00 1.09 1.04 71 1014.6
20260504210006 25 0.0 0.0 0.00 1.09 1.04 70 1014.6
20260504205512 25 0.0 0.0 0.00 1.09 1.04 70 1014.6
20260504205007 25 0.0 0.0 0.00 1.09 1.04 69 1014.6
20260504204513 25 0.0 0.0 0.00 1.09 1.04 69 1014.6
20260504204010 25 0.0 0.0 0.00 1.09 1.04 70 1014.6
20260504203012 25 0.0 0.0 0.00 1.09 1.04 70 1014.6
20260504202514 25 0.0 0.0 0.00 1.09 1.04 71 1015.0
20260504202009 24 0.0 0.0 0.00 1.09 1.04 72 1015.0
20260504201515 24 0.0 0.0 0.00 1.09 1.04 72 1015.0
20260504201010 25 0.0 0.0 0.00 1.09 1.04 72 1015.0
20260504200515 25 0.0 0.0 0.00 1.09 1.04 71 1015.0
20260504200012 25 0.0 0.0 0.00 1.09 1.04 71 1015.0
20260504195517 24 0.0 0.0 0.00 1.09 1.04 72 1015.0
20260504195011 24 0.0 0.0 0.00 1.09 1.04 72 1015.3
20260504194516 25 0.0 0.0 0.00 1.09 1.04 72 1015.3
20260504194012 25 0.0 0.0 0.00 1.09 1.04 72 1015.3
20260504193508 25 0.0 0.0 0.00 1.09 1.04 72 1015.3
20260504193013 25 0.0 0.0 0.00 1.09 1.04 73 1015.3
20260504192514 25 0.0 0.0 0.00 1.09 1.04 72 1015.3
20260504192013 25 0.0 0.0 0.00 1.09 1.04 72 1015.3
20260504191508 25 0.0 0.0 0.00 1.09 1.04 72 1015.3
20260504191014 25 0.0 0.0 0.00 1.09 1.04 71 1015.3
20260504190509 25 0.0 0.0 0.00 1.09 1.04 71 1015.6
20260504190014 25 0.0 0.0 0.00 1.09 1.04 71 1015.6
20260504185509 25 0.0 0.0 0.00 1.09 1.04 72 1015.6
20260504185015 25 0.0 0.0 0.00 1.09 1.04 72 1015.6
20260504184511 24 0.0 0.0 0.00 1.09 1.04 73 1015.6
20260504184016 24 0.0 0.0 0.00 1.09 1.04 73 1015.6
20260504183511 24 0.0 0.0 0.00 1.12 1.04 74 1016.0
20260504183017 24 0.0 0.0 0.00 1.12 1.04 73 1016.0
20260504182512 25 0.0 0.0 0.00 1.12 1.04 74 1016.0
20260504182007 25 0.0 0.0 0.00 1.12 1.04 73 1016.0
20260504181512 25 0.0 0.0 0.00 1.12 1.04 72 1016.0
20260504181007 26 0.0 0.0 0.00 1.12 1.04 71 1016.0
20260504180513 25 0.0 0.0 0.00 1.12 1.04 73 1016.0
20260504180008 25 0.0 0.0 0.00 1.12 1.04 74 1016.0
20260504175513 24 0.0 0.0 0.00 1.12 1.04 75 1016.0
20260504175008 24 0.0 0.0 0.00 1.12 1.04 76 1016.3
20260504174513 23 0.0 0.0 0.00 1.12 1.04 78 1016.3
20260504174009 23 0.0 0.0 0.00 1.12 1.04 79 1016.3
20260504173518 23 0.0 0.0 0.00 1.12 1.04 79 1016.3
20260504173010 23 0.0 0.0 0.00 1.12 1.04 78 1016.3
20260504172516 23 0.0 0.0 0.00 1.12 1.04 77 1016.3
20260504172011 24 0.0 0.0 0.00 1.12 1.04 76 1016.3
20260504171506 24 0.0 0.0 0.00 1.12 1.04 77 1016.3
20260504171011 25 0.0 0.0 0.00 1.12 1.04 76 1016.3
20260504170507 24 0.0 0.0 0.00 1.12 1.04 78 1016.3
20260504151009 25 0.0 0.0 0.00 0.94 0.86 74 1016.7
20260504150506 25 0.0 0.0 0.00 0.94 0.86 74 1016.7